Weather observations for the past three days for
Olympia, Olympia Airport
| Date | Time (pdt) | Wind (mph) | Vis. (mi.) | Weather | Sky Cond. | Temperature (ºF) | Relative Humidity | Wind Chill (°F) | Heat Index (°F) | Pressure | Precipitation (in) | ||||||
|---|---|---|---|---|---|---|---|---|---|---|---|---|---|---|---|---|---|
| Air | Dwpt | 6 hour | altimeter (in) | sea level (mb) | 1 hr | 3 hr | 6 hr | ||||||||||
| Max. | Min. | ||||||||||||||||
| 08 | 02:54 | SW 3 | 10.00 | Fair | CLR | 46.9 | 43 | 86% | 30.04 | 1017.3 | |||||||
| 08 | 01:54 | S 3 | 10.00 | Fair | CLR | 48 | 44.1 | 86% | 30.04 | 1017.1 | |||||||
| 08 | 00:54 | Calm | 10.00 | Fair | CLR | 50 | 45 | 83% | 30.03 | 1016.9 | |||||||
| 07 | 23:54 | S 3 | 10.00 | Fair | CLR | 50 | 46 | 86% | 30.03 | 1016.9 | |||||||
| 07 | 22:54 | S 5 | 10.00 | Fair | CLR | 51.1 | 45 | 68 | 50 | 80% | 30.03 | 1017.0 | |||||
| 07 | 21:54 | Calm | 10.00 | Fair | CLR | 53.1 | 45 | 74% | 30.03 | 1016.9 | |||||||
| 07 | 20:54 | W 3 | 10.00 | Fair | CLR | 57 | 46 | 67% | 30.03 | 1016.8 | |||||||
| 07 | 19:54 | N 5 | 10.00 | Fair | CLR | 62.1 | 45 | 54% | 30.01 | 1016.3 | |||||||
| 07 | 18:54 | N 3 | 10.00 | Fair | CLR | 66 | 44.1 | 45% | 30.02 | 1016.5 | |||||||
| 07 | 17:54 | E 5 | 10.00 | Fair | CLR | 66 | 44.1 | 45% | 30.03 | 1017.0 | |||||||
| 07 | 16:54 | Vrbl 3 | 10.00 | Fair | CLR | 66 | 45 | 66.9 | 55.9 | 47% | 30.04 | 1017.4 | |||||
| 07 | 15:54 | NE 3 | 10.00 | Partly Cloudy | SCT045 | 64.9 | 44.1 | 47% | 30.06 | 1018.0 | |||||||
| 07 | 14:54 | E 5 | 10.00 | Fair | CLR | 66 | 45 | 47% | 30.08 | 1018.7 | |||||||
| 07 | 13:54 | Calm | 10.00 | Fair | CLR | 62.1 | 44.1 | 52% | 30.1 | 1019.3 | |||||||
| 07 | 12:54 | Calm | 10.00 | Fair | CLR | 60.1 | 43 | 53% | 30.12 | 1020.0 | |||||||
| 07 | 11:54 | Vrbl 3 | 10.00 | Mostly Cloudy | BKN035 | 55.9 | 42.1 | 60% | 30.13 | 1020.3 | |||||||
| 07 | 10:54 | S 6 | 10.00 | Mostly Cloudy | SCT023 BKN036 | 55.9 | 43 | 57 | 48.9 | 62% | 30.14 | 1020.7 | |||||
| 07 | 09:54 | SW 7 | 10.00 | Mostly Cloudy | SCT022 BKN036 | 54 | 43 | 67% | 30.15 | 1020.8 | |||||||
| 07 | 08:54 | S 6 | 10.00 | Overcast | OVC038 | 51.1 | 43 | 74% | 30.15 | 1021.0 | |||||||
| 07 | 07:54 | SW 3 | 10.00 | Overcast | OVC039 | 50 | 42.1 | 74% | 30.16 | 1021.1 | |||||||
| 07 | 06:54 | S 5 | 10.00 | Overcast | OVC037 | 48.9 | 42.1 | 77% | 48 | 30.15 | 1020.8 | ||||||
| 07 | 05:54 | Calm | 10.00 | Overcast | SCT026 OVC035 | 48.9 | 43 | 80% | 30.14 | 1020.7 | |||||||
| 07 | 04:54 | S 6 | 10.00 | Overcast | SCT026 OVC036 | 48.9 | 43 | 53.1 | 48.9 | 80% | 47 | 30.15 | 1020.9 | ||||
| 07 | 03:54 | S 6 | 10.00 | Overcast | OVC037 | 50 | 44.1 | 80% | 48 | 30.15 | 1021.1 | ||||||
| 07 | 02:54 | S 6 | 10.00 | Overcast | OVC038 | 50 | 44.1 | 80% | 48 | 30.15 | 1021.1 | ||||||
| 07 | 01:54 | SW 7 | 10.00 | Overcast | OVC030 | 52 | 44.1 | 75% | 30.16 | 1021.4 | |||||||
| 07 | 00:54 | SW 8 | 10.00 | Overcast | BKN029 OVC035 | 52 | 44.1 | 75% | 30.16 | 1021.4 | |||||||
| 06 | 23:54 | SW 8 | 10.00 | Overcast | OVC031 | 52 | 44.1 | 75% | 30.16 | 1021.2 | |||||||
| 06 | 22:54 | S 9 | 10.00 | Overcast | OVC031 | 53.1 | 44.1 | 57.9 | 53.1 | 72% | 30.16 | 1021.3 | |||||
| 06 | 21:54 | SW 8 | 10.00 | Overcast | OVC027 | 53.1 | 44.1 | 72% | 30.16 | 1021.4 | |||||||
| 06 | 20:54 | SW 8 | 10.00 | Overcast | OVC027 | 54 | 46 | 75% | 30.16 | 1021.2 | |||||||
| 06 | 19:54 | SW 10 | 10.00 | Overcast | OVC028 | 55 | 46.9 | 74% | 30.14 | 1020.7 | |||||||
| 06 | 18:54 | SW 8 | 10.00 | Overcast | OVC022 | 55.9 | 46.9 | 72% | 30.14 | 1020.7 | |||||||
| 06 | 17:54 | W 10 G 18 | 10.00 | Overcast | OVC026 | 57 | 46.9 | 69% | 30.14 | 1020.7 | |||||||
| 06 | 16:54 | SW 9 | 10.00 | Overcast | OVC026 | 57 | 46.9 | 57.9 | 55 | 69% | 30.15 | 1020.8 | |||||
| 06 | 15:54 | SW 13 G 22 | 10.00 | Overcast | OVC023 | 57.9 | 46.9 | 67% | 30.15 | 1020.9 | |||||||
| 06 | 14:54 | SW 15 G 22 | 10.00 | Overcast | OVC025 | 57 | 46.9 | 69% | 30.16 | 1021.2 | |||||||
| 06 | 13:54 | W 14 G 22 | 10.00 | Overcast | OVC024 | 57 | 46.9 | 69% | 30.16 | 1021.2 | |||||||
| 06 | 12:54 | SW 9 | 10.00 | Overcast | OVC021 | 55.9 | 46.9 | 72% | 30.15 | 1021.0 | |||||||
| 06 | 11:54 | SW 8 | 10.00 | Overcast | OVC022 | 55.9 | 46.9 | 72% | 30.15 | 1021.0 | |||||||
| 06 | 10:54 | SW 13 G 20 | 10.00 | Overcast | OVC022 | 55.9 | 46 | 55.9 | 52 | 70% | 30.13 | 1020.4 | |||||
| 06 | 09:54 | SW 8 | 10.00 | Overcast | OVC018 | 55 | 46 | 72% | 30.14 | 1020.6 | |||||||
| 06 | 08:54 | W 7 | 10.00 | Overcast | OVC014 | 54 | 46.9 | 77% | 30.12 | 1020.1 | |||||||
| 06 | 07:54 | SW 7 | 10.00 | Overcast | OVC014 | 53.1 | 46.9 | 80% | 30.12 | 1020.1 | |||||||
| 06 | 06:54 | SW 8 | 10.00 | Overcast | OVC016 | 52 | 46.9 | 83% | 30.11 | 1019.7 | |||||||
| 06 | 05:54 | SW 6 | 10.00 | Overcast | OVC014 | 52 | 46.9 | 83% | 30.1 | 1019.2 | |||||||
| 06 | 04:54 | SW 8 | 10.00 | Overcast | OVC011 | 52 | 48 | 53.1 | 52 | 86% | 30.09 | 1019.0 | |||||
| 06 | 03:54 | SW 8 | 10.00 | Overcast | OVC011 | 52 | 48 | 86% | 30.08 | 1018.6 | |||||||
| 06 | 02:54 | SW 8 | 10.00 | Overcast | OVC013 | 53.1 | 48 | 83% | 30.07 | 1018.2 | |||||||
| 06 | 01:54 | S 6 | 10.00 | Overcast | OVC017 | 53.1 | 48 | 83% | 30.06 | 1018.0 | |||||||
| 06 | 00:54 | SW 5 | 10.00 | Overcast | OVC019 | 53.1 | 48 | 83% | 30.05 | 1017.5 | |||||||
| 05 | 23:54 | SW 5 | 10.00 | Fair | CLR | 52 | 48 | 86% | 30.03 | 1016.9 | |||||||
| 05 | 22:54 | SW 5 | 10.00 | Fair | CLR | 53.1 | 48.9 | 64 | 52 | 86% | 30.02 | 1016.6 | |||||
| 05 | 21:54 | S 6 | 10.00 | Fair | CLR | 53.1 | 48.9 | 86% | 30.01 | 1016.3 | |||||||
| 05 | 20:54 | S 6 | 10.00 | Fair | CLR | 55.9 | 50 | 81% | 30 | 1015.8 | |||||||
| 05 | 19:54 | SW 8 | 10.00 | Fair | CLR | 60.1 | 50 | 70% | 29.98 | 1015.3 | |||||||
| 05 | 18:54 | SW 8 | 10.00 | Fair | CLR | 63 | 51.1 | 65% | 29.98 | 1015.2 | |||||||
| 05 | 17:54 | SW 9 | 10.00 | Mostly Cloudy | BKN027 | 64 | 52 | 65% | 29.98 | 1015.2 | |||||||
| 05 | 16:54 | Vrbl 6 | 10.00 | Overcast | OVC025 | 64 | 52 | 64 | 57 | 65% | 29.99 | 1015.5 | |||||
| 05 | 15:54 | W 7 | 10.00 | Overcast | OVC024 | 62.1 | 51.1 | 67% | 30.01 | 1016.2 | |||||||
| 05 | 14:54 | Vrbl 3 | 10.00 | Overcast | OVC023 | 61 | 51.1 | 70% | 30.02 | 1016.5 | |||||||
| 05 | 13:54 | S 6 | 10.00 | Overcast | OVC022 | 60.1 | 50 | 70% | 30.02 | 1016.6 | |||||||
| 05 | 12:54 | SW 7 | 10.00 | Overcast | OVC021 | 59 | 50 | 72% | 30.02 | 1016.6 | |||||||
| 05 | 11:54 | SW 7 | 10.00 | Overcast | OVC020 | 57.9 | 48.9 | 72% | 30.02 | 1016.7 | |||||||
| 05 | 10:54 | S 6 | 10.00 | Overcast | OVC019 | 57 | 48.9 | 57 | 55 | 74% | 30.02 | 1016.5 | |||||
| 05 | 09:54 | S 6 | 10.00 | Overcast | OVC018 | 57 | 48.9 | 74% | 30.01 | 1016.3 | |||||||
| 05 | 08:54 | S 6 | 10.00 | Overcast | OVC020 | 57 | 48.9 | 74% | 30 | 1016.0 | |||||||
| 05 | 07:54 | SW 5 | 10.00 | Overcast | OVC017 | 55 | 48.9 | 80% | 29.99 | 1015.6 | |||||||
| 05 | 06:54 | SW 6 | 10.00 | Overcast | OVC017 | 55 | 50 | 83% | 29.98 | 1015.2 | |||||||
| 05 | 05:54 | SW 7 | 10.00 | Overcast | OVC016 | 55 | 48.9 | 80% | 29.96 | 1014.5 | |||||||
| 05 | 04:54 | SW 7 | 10.00 | Overcast | OVC017 | 55 | 50 | 55 | 46.9 | 83% | 29.95 | 1014.1 | |||||
| 05 | 03:54 | SW 7 | 10.00 | Overcast | OVC017 | 54 | 50 | 87% | 29.94 | 1013.9 | |||||||
| Date | Time (pdt) | Wind (mph) | Vis. (mi.) | Weather | Sky Cond. | Air | Dwpt | Max. | Min. | Relative Humidity | Wind Chill (°F) | Heat Index (°F) | altimeter (in) | sea level (mb) | 1 hr | 3 hr | 6 hr |
| 6 hour | |||||||||||||||||
| Temperature (ºF) | Pressure | Precipitation (in) | |||||||||||||||